Location: Sydney
(46.1500°N, 60.1670°W)
Time: 22:46:00
(UTC-03:00)

Iridium 90 - Visible Passes

Search period start: 26 May 2015 00:00
Search period end: 05 June 2015 00:00
Orbit: 747 x 750 km, 86.4° (Epoch: 26 May)

Date Brightness Start Highest point End Pass type
(mag) Time Alt. Az. Time Alt. Az. Time Alt. Az.
26 May 7.7 04:14:01 10° SE 04:18:03 25° E 04:22:12 10° NNE visible
27 May 8.4 03:34:36 10° E 03:36:23 12° ENE 03:38:26 10° NE visible
28 May 6.7 04:29:06 10° SSE 04:33:51 43° E 04:38:40 10° NNE visible
29 May 7.9 03:48:24 10° SE 03:52:03 21° E 03:55:52 10° NNE visible
31 May 7.0 04:03:16 10° SSE 04:07:49 36° E 04:12:27 10° NNE visible
01 Jun 8.0 03:22:52 10° ESE 03:26:04 18° E 03:29:26 10° NE visible
02 Jun 6.0 04:18:42 10° S 04:23:41 64° E 04:28:43 10° N visible
03 Jun 7.2 03:37:29 10° SE 03:41:48 30° E 03:46:13 10° NNE visible
04 Jun 8.1 02:57:31 10° ESE 03:00:05 15° ENE 03:02:54 10° NE visible
